This is the latest recevied weather packets stored in our database for station/object KJ5EHN. If no packets are shown the sender has not sent any weather packets the latest 10 day(s).
| Time | Temp. | Humidity | Pressure | Rain* | Wind** | Luminosity | Snow |
|---|---|---|---|---|---|---|---|
| 1777677801 | 18.33° C | 59% | 1015.4 hPa | 0 mm | - | - | - |
| 1777677498 | 18.33° C | 58% | 1015.4 hPa | 0 mm | - | - | - |
| 1777677196 | 18.33° C | 59% | 1015.3 hPa | 0 mm | - | - | - |
| 1777676894 | 18.89° C | 58% | 1015.4 hPa | 0 mm | - | - | - |
| 1777676593 | 18.89° C | 59% | 1015.3 hPa | 0 mm | - | - | - |
| 1777676290 | 18.89° C | 58% | 1015.4 hPa | 0 mm | - | - | - |
| 1777675987 | 18.89° C | 57% | 1015.1 hPa | 0 mm | - | - | - |
| 1777675683 | 18.89° C | 57% | 1015 hPa | 0 mm | - | - | - |
| 1777675381 | 18.33° C | 57% | 1015.1 hPa | 0 mm | - | - | - |
| 1777675076 | 18.33° C | 57% | 1015 hPa | 0 mm | - | - | - |
| 1777674773 | 18.33° C | 58% | 1014.8 hPa | 0 mm | - | - | - |
| 1777674470 | 18.89° C | 57% | 1014.8 hPa | 0 mm | - | - | - |
| 1777674168 | 18.89° C | 57% | 1014.8 hPa | 0 mm | - | - | - |
| 1777673864 | 18.33° C | 59% | 1014.9 hPa | 0 mm | - | - | - |
| 1777673561 | 18.33° C | 56% | 1014.8 hPa | 0 mm | - | - | - |
| 1777673258 | 18.89° C | 56% | 1014.7 hPa | 0 mm | - | - | - |
| 1777672955 | 18.89° C | 56% | 1014.8 hPa | 0 mm | - | - | - |
| 1777672652 | 18.89° C | 56% | 1014.6 hPa | 0 mm | - | - | - |
| 1777672347 | 18.89° C | 56% | 1014.7 hPa | 0 mm | - | - | - |
| 1777672043 | 18.89° C | 57% | 1014.8 hPa | 0 mm | - | - | - |
| 1777671739 | 18.89° C | 55% | 1015 hPa | 0 mm | - | - | - |
| 1777671436 | 18.89° C | 56% | 1015 hPa | 0 mm | - | - | - |
| 1777671132 | 18.89° C | 54% | 1015 hPa | 0 mm | - | - | - |
| 1777670828 | 18.89° C | 55% | 1015 hPa | 0 mm | - | - | - |
| 1777670525 | 19.44° C | 54% | 1015.1 hPa | 0 mm | - | - | - |
* Rain latest hour (hover to see other rain measurements)
** Current wind speed in m/s (hover to see current wind gust speed)